KUNU

Dodge County Airport

Airport
ICAO code
KUNU
IATA Code
UNU
Summary
ICAO Region
NAM
ICAO Territory
Location

Juneau, Wisconsin

Serving
Juneau
Elevation
934 ft
Coordinates
43° 25' 36" N , 88° 42' 12" W
KCC
Metar
KUNU 181755Z AUTO 31003KT 10SM BKN050 BKN065 21/10 A3023 RMK AO2 T02070096 10214 20133

Description

Dodge County Airport is a public airport located north of Juneau, Wisconsin.

Runways

Designator Length Width Surface Rops
2/20 1227 23 ASP No/No
8/26 1542 30 ASP No/No

Airport map

Aerial View

SKYbrary Partners:

Safety knowledge contributed by: